📊 Raw Sensor Data
Showing records 40126 to 40150 of 84,957 total
| ID | Distance (ft) | Battery V | Battery A | Int Temp (°F) | Int Humid (%) | Ext Temp (°F) | Solar V | RSSI | SNR | Time Stamp |
|---|---|---|---|---|---|---|---|---|---|---|
| 44844 | 15.2 | 3.93 | -5 | 59 | 43 | 60 | 0.00 | -67 | 8 | 06/29/2025 04:45 AM |
| 44843 | 15.3 | 3.83 | -5 | 59 | 43 | 61 | 0.00 | -68 | 8 | 06/29/2025 04:30 AM |
| 44842 | 15.3 | 3.83 | -5 | 59 | 44 | 60 | 0.00 | -66 | 8 | 06/29/2025 04:15 AM |
| 44841 | 15.3 | 3.84 | -5 | 59 | 44 | 60 | 0.00 | -67 | 8 | 06/29/2025 04:00 AM |
| 44840 | 15.3 | 3.84 | -5 | 59 | 44 | 61 | 0.00 | -66 | 8 | 06/29/2025 03:45 AM |
| 44839 | 15.3 | 3.94 | -5 | 58 | 44 | 61 | 0.00 | -66 | 8 | 06/29/2025 03:30 AM |
| 44838 | 15.3 | 3.84 | -5 | 58 | 44 | 60 | 0.00 | -66 | 8 | 06/29/2025 03:15 AM |
| 44837 | 15.3 | 3.94 | -5 | 59 | 44 | 61 | 0.00 | -67 | 8 | 06/29/2025 03:00 AM |
| 44836 | 15.3 | 3.84 | -5 | 59 | 44 | 61 | 0.00 | -67 | 8 | 06/29/2025 02:45 AM |
| 44835 | 15.3 | 3.84 | -5 | 59 | 45 | 60 | 0.00 | -66 | 7 | 06/29/2025 02:30 AM |
| 44834 | 15.3 | 3.94 | -5 | 60 | 45 | 62 | 0.10 | -67 | 8 | 06/29/2025 02:15 AM |
| 44833 | 15.3 | 3.84 | -5 | 60 | 45 | 61 | 0.00 | -67 | 8 | 06/29/2025 02:00 AM |
| 44832 | 15.3 | 3.84 | -5 | 60 | 45 | 61 | 0.00 | -67 | 8 | 06/29/2025 01:45 AM |
| 44831 | 15.3 | 3.85 | -5 | 61 | 46 | 62 | 0.00 | -67 | 8 | 06/29/2025 01:30 AM |
| 44830 | 15.3 | 3.94 | -5 | 61 | 46 | 62 | 0.00 | -66 | 8 | 06/29/2025 01:15 AM |
| 44829 | 15.3 | 3.85 | -5 | 63 | 46 | 62 | 0.00 | -68 | 8 | 06/29/2025 01:00 AM |
| 44828 | 15.3 | 3.95 | -5 | 64 | 46 | 65 | 0.00 | -66 | 8 | 06/29/2025 12:45 AM |
| 44827 | 15.3 | 3.95 | -5 | 65 | 45 | 66 | 0.00 | -67 | 8 | 06/29/2025 12:30 AM |
| 44826 | 15.3 | 3.95 | -5 | 66 | 46 | 68 | 0.00 | -66 | 8 | 06/29/2025 12:15 AM |
| 44825 | 15.3 | 3.85 | -5 | 66 | 46 | 68 | 0.00 | -67 | 8 | 06/29/2025 12:00 AM |
| 44824 | 15.3 | 3.86 | -5 | 67 | 46 | 68 | 0.00 | -66 | 8 | 06/28/2025 11:45 PM |
| 44823 | 15.3 | 3.86 | -5 | 67 | 46 | 68 | 0.10 | -66 | 8 | 06/28/2025 11:30 PM |
| 44822 | 15.3 | 3.95 | -5 | 68 | 46 | 69 | 0.00 | -66 | 8 | 06/28/2025 11:15 PM |
| 44821 | 15.3 | 3.95 | -5 | 69 | 46 | 70 | 0.00 | -68 | 8 | 06/28/2025 11:00 PM |
| 44820 | 15.3 | 3.87 | -5 | 69 | 47 | 70 | 0.00 | -71 | 7 | 06/28/2025 10:45 PM |